Monistrol de Calders





Hora UTC 21:10
Temperatura 5.4 ºC
Humitat 85.0 %
Pressió 1036.5 hPa
Pluja 0.0 mm
Velocitat vent 4.8 km/h
Direcció vent SSE

Dades diàries 2020-02-22



Hora UTC (hivern +1h; estiu +2h)
Temperatura (ºC) Humitat (%) Pressió (hPa) Velocitat vent (km/h) Precipitació (mm)
Hora UTC Aire Humitat Pressió Vel. Dir. Vel. Max Dir. Intent. màx 5 min.
00:05 1.4 89.0 1032.4 3.2 SSE 3.2 0.0
00:10 1.4 89.0 1032.4 3.2 SSE 8.0 0.0
00:15 1.4 89.0 1032.4 1.6 SSE 8.0 0.0
00:20 1.4 89.0 1032.4 0.0 SSE 4.8 0.0
00:25 1.2 89.0 1032.3 1.6 SSE 4.8 0.0
00:30 1.2 89.0 1032.3 0.0 SSE 4.8 0.0
00:35 1.1 89.0 1032.3 0.0 SSE 3.2 0.0
00:40 1.0 89.0 1032.3 0.0 SSE 3.2 0.0
00:45 1.0 89.0 1032.3 1.6 SSE 3.2 0.0
00:50 0.9 89.0 1032.2 0.0 SSE 3.2 0.0
00:55 0.9 89.0 1032.2 0.0 SSE 3.2 0.0
01:00 0.9 89.0 1032.2 1.6 SSE 3.2 0.0
01:05 0.8 89.0 1032.2 0.0 SSE 3.2 0.0
01:10 0.8 89.0 1032.4 0.0 SSE 1.6 0.0
01:15 0.8 89.0 1032.3 0.0 SSE 0.0 0.0
01:20 0.8 89.0 1032.4 0.0 SSE 0.0 0.0
01:25 0.7 89.0 1032.3 1.6 SSE 6.4 0.0
01:30 0.7 89.0 1032.3 0.0 SSE 4.8 0.0
01:35 0.6 89.0 1032.2 0.0 SSE 4.8 0.0
01:40 0.6 89.0 1032.2 0.0 SSE 3.2 0.0
01:45 0.6 89.0 1032.2 0.0 SSE 1.6 0.0
01:50 0.6 89.0 1032.1 0.0 SSE 1.6 0.0
01:55 0.5 89.0 1032.2 1.6 SSE 3.2 0.0
02:00 0.3 89.0 1032.2 0.0 SSE 3.2 0.0
02:05 0.3 89.0 1032.1 0.0 SSE 3.2 0.0
02:10 0.3 90.0 1032.1 0.0 SSE 4.8 0.0
02:15 0.3 90.0 1032.1 0.0 SSE 3.2 0.0
02:20 0.3 90.0 1032.1 1.6 SSE 3.2 0.0
02:25 0.2 90.0 1032.1 0.0 SSE 3.2 0.0
02:30 0.3 90.0 1032.1 0.0 SSE 1.6 0.0
02:35 0.2 89.0 1032.1 0.0 SSE 0.0 0.0
02:40 0.1 89.0 1032.1 0.0 SSE 0.0 0.0
02:45 -0.1 90.0 1032.1 1.6 SSE 3.2 0.0
02:50 -0.1 90.0 1032.0 1.6 SSE 4.8 0.0
02:55 -0.1 90.0 1032.0 0.0 SSE 4.8 0.0
03:00 0.0 90.0 1032.1 0.0 SSE 3.2 0.0
03:05 0.1 90.0 1032.1 0.0 SSE 3.2 0.0
03:10 -0.1 90.0 1032.1 0.0 SSE 3.2 0.0
03:15 -0.1 90.0 1032.1 0.0 SSE 1.6 0.0
03:20 -0.2 90.0 1032.1 0.0 SSE 0.0 0.0
03:25 -0.2 90.0 1032.2 0.0 SSE 3.2 0.0
03:30 -0.2 90.0 1032.2 0.0 SSE 1.6 0.0
03:35 -0.2 90.0 1032.2 0.0 SSE 1.6 0.0
03:40 -0.2 90.0 1032.2 0.0 SSE 3.2 0.0
03:45 -0.3 90.0 1032.1 1.6 SSE 3.2 0.0
03:50 -0.3 90.0 1032.1 0.0 SSE 3.2 0.0
03:55 -0.3 90.0 1032.1 1.6 SSE 4.8 0.0
04:00 -0.3 90.0 1032.0 0.0 SSE 4.8 0.0
04:05 -0.3 90.0 1032.0 3.2 SSE 3.2 0.0
04:10 -0.3 90.0 1032.0 3.2 SSE 3.2 0.0
04:15 -0.4 90.0 1031.8 0.0 SSE 3.2 0.0
04:20 -0.4 90.0 1031.9 0.0 SSE 3.2 0.0
04:25 -0.4 90.0 1032.0 0.0 SSE 3.2 0.0
04:30 -0.4 90.0 1032.0 0.0 SSE 3.2 0.0
04:35 -0.5 90.0 1032.1 0.0 SSE 3.2 0.0
04:40 -0.4 90.0 1032.0 0.0 SSE 0.0 0.0
04:45 -0.4 90.0 1032.0 0.0 SSE 0.0 0.0
04:50 -0.5 90.0 1032.1 0.0 SSE 0.0 0.0
04:55 -0.6 90.0 1032.1 0.0 SSE 1.6 0.0
05:00 -0.5 90.0 1032.2 0.0 SSE 1.6 0.0
05:05 -0.4 90.0 1032.2 0.0 SSE 1.6 0.0
05:10 -0.5 90.0 1032.3 0.0 SSE 3.2 0.0
05:15 -0.4 90.0 1032.3 0.0 SSE 4.8 0.0
05:20 -0.4 90.0 1032.3 0.0 SSE 4.8 0.0
05:25 -0.3 91.0 1032.5 1.6 SSE 3.2 0.0
05:30 -0.4 90.0 1032.4 0.0 SSE 3.2 0.0
05:35 -0.5 90.0 1032.4 3.2 SSE 4.8 0.0
05:40 -0.6 90.0 1032.4 0.0 SSE 4.8 0.0
05:45 -0.4 90.0 1032.5 0.0 SSE 4.8 0.0
05:50 -0.4 91.0 1032.5 0.0 SSE 1.6 0.0
05:55 -0.4 91.0 1032.5 0.0 SSE 0.0 0.0
06:00 -0.5 90.0 1032.6 0.0 SSE 1.6 0.0
06:05 -0.5 90.0 1032.7 0.0 SSE 1.6 0.0
06:10 -0.5 90.0 1032.8 0.0 SSE 1.6 0.0
06:15 -0.5 90.0 1032.9 0.0 SSE 0.0 0.0
06:20 -0.5 90.0 1032.9 0.0 SSE 0.0 0.0
06:25 -0.6 90.0 1032.8 1.6 SSE 3.2 0.0
06:30 -0.6 90.0 1032.9 0.0 SSE 3.2 0.0
06:35 -0.4 91.0 1033.1 0.0 SSE 3.2 0.0
06:40 -0.3 91.0 1033.1 0.0 SSE 1.6 0.0
06:45 -0.4 90.0 1033.2 0.0 SSE 3.2 0.0
06:50 -0.4 91.0 1033.2 0.0 SSE 3.2 0.0
06:55 -0.4 91.0 1033.2 0.0 SSE 3.2 0.0
07:00 -0.4 91.0 1033.3 0.0 SSE 3.2 0.0
07:05 -0.3 91.0 1033.3 0.0 SSE 1.6 0.0
07:10 -0.3 91.0 1033.4 0.0 SSE 3.2 0.0
07:15 -0.2 91.0 1033.5 0.0 SSE 3.2 0.0
07:20 -0.2 91.0 1033.5 0.0 SSE 3.2 0.0
07:25 0.3 91.0 1033.6 0.0 SSE 0.0 0.0
07:30 0.4 91.0 1033.6 0.0 SSE 0.0 0.0
07:35 0.4 91.0 1033.5 1.6 SSE 1.6 0.0
07:40 0.4 91.0 1033.5 3.2 SSE 4.8 0.0
07:45 0.5 91.0 1033.7 0.0 SSE 4.8 0.0
07:50 0.8 91.0 1033.7 0.0 SSE 1.6 0.0
07:55 0.9 91.0 1033.7 0.0 SSE 1.6 0.0
08:00 1.1 91.0 1033.9 0.0 SSE 0.0 0.0
08:05 1.5 91.0 1034.0 0.0 SSE 0.0 0.0
08:10 1.9 91.0 1034.1 0.0 SSE 1.6 0.0
08:15 2.1 90.0 1034.0 0.0 SSE 1.6 0.0
08:20 2.1 90.0 1034.0 0.0 SSE 1.6 0.0
08:25 2.7 90.0 1033.9 0.0 SSE 1.6 0.0
08:30 3.2 90.0 1033.8 0.0 SSE 0.0 0.0
08:35 4.1 91.0 1033.8 0.0 SSE 0.0 0.0
08:40 4.8 90.0 1033.9 0.0 SSE 0.0 0.0
08:45 5.4 89.0 1034.0 0.0 SSE 0.0 0.0
08:50 5.9 87.0 1034.1 0.0 SSE 1.6 0.0
08:55 6.2 86.0 1034.1 0.0 SSE 1.6 0.0
09:00 6.6 85.0 1034.1 0.0 SSE 0.0 0.0
09:05 6.8 84.0 1034.1 0.0 SSE 0.0 0.0
09:10 7.3 84.0 1034.1 0.0 SSE 0.0 0.0
09:15 7.8 84.0 1034.2 0.0 SSE 0.0 0.0
09:20 0.0
09:25 8.8 83.0 1034.3 0.0 SSE 1.6 0.0
09:30 9.6 81.0 1034.2 0.0 SSE 1.6 0.0
09:35 10.1 79.0 1034.2 0.0 SSE 1.6 0.0
09:40 10.6 77.0 1034.2 0.0 SSE 1.6 0.0
09:45 11.1 77.0 1034.3 0.0 SSE 1.6 0.0
09:50 11.4 76.0 1034.4 0.0 SSE 1.6 0.0
09:55 11.9 76.0 1034.4 0.0 SSE 1.6 0.0
10:00 12.3 73.0 1034.4 0.0 SSE 0.0 0.0
10:05 12.8 73.0 1034.4 0.0 SSE 0.0 0.0
10:10 13.2 72.0 1034.4 0.0 SSE 1.6 0.0
10:15 13.6 70.0 1034.4 0.0 SSE 1.6 0.0
10:15 13.7 69.0 1034.4 0.0 SSE 1.6 0.0
10:25 13.8 70.0 1034.6 0.0 WNW 1.6 0.0
10:30 13.9 68.0 1034.6 0.0 NW 3.2 0.0
10:35 14.1 68.0 1034.7 0.0 NW 1.6 0.0
10:40 14.2 67.0 1034.6 0.0 NW 1.6 0.0
10:45 14.3 68.0 1034.6 0.0 WNW 6.4 0.0
10:50 14.7 66.0 1034.6 0.0 WNW 6.4 0.0
10:55 14.9 66.0 1034.6 0.0 SW 4.8 0.0
11:00 15.2 63.0 1034.6 1.6 NNE 6.4 0.0
11:05 15.1 65.0 1034.6 0.0 NNE 6.4 0.0
11:10 15.2 62.0 1034.6 4.8 ENE 6.4 0.0
11:15 15.3 60.0 1034.6 4.8 SW 12.9 0.0
11:15 15.3 60.0 1034.6 9.7 SSW 12.9 0.0
11:25 15.8 56.0 1034.7 11.3 SSE 14.5 0.0
11:30 15.8 56.0 1034.6 12.9 SE 14.5 0.0
11:35 15.9 55.0 1034.6 1.6 SSW 16.1 0.0
11:40 16.1 54.0 1034.6 4.8 E 14.5 0.0
11:45 16.3 59.0 1034.5 0.0 NW 14.5 0.0
11:50 16.2 61.0 1034.4 4.8 WNW 11.3 0.0
11:55 16.1 60.0 1034.3 1.6 W 11.3 0.0
12:00 16.2 61.0 1034.2 3.2 WNW 11.3 0.0
12:05 16.5 60.0 1034.1 4.8 WNW 8.0 0.0
12:10 16.7 60.0 1034.1 6.4 W 11.3 0.0
12:15 16.6 59.0 1034.1 4.8 W 11.3 0.0
12:15 16.6 60.0 1034.1 6.4 WNW 11.3 0.0
12:25 16.4 61.0 1034.0 4.8 W 12.9 0.0
12:30 16.3 58.0 1034.0 8.0 WNW 12.9 0.0
12:35 16.3 60.0 1033.8 1.6 WNW 12.9 0.0
12:40 16.6 61.0 1033.8 0.0 WNW 11.3 0.0
12:45 16.8 59.0 1033.7 1.6 W 8.0 0.0
12:50 16.9 58.0 1033.7 9.7 WNW 9.7 0.0
12:55 16.9 59.0 1033.5 4.8 W 11.3 0.0
13:00 17.1 60.0 1033.5 8.0 WNW 11.3 0.0
13:05 17.3 58.0 1033.5 0.0 WNW 11.3 0.0
13:10 17.5 57.0 1033.6 4.8 WNW 6.4 0.0
13:15 17.6 57.0 1033.5 1.6 W 8.0 0.0
13:15 17.6 57.0 1033.5 3.2 WNW 8.0 0.0
13:25 17.7 59.0 1033.5 4.8 WNW 11.3 0.0
13:30 17.7 57.0 1033.5 8.0 WNW 9.7 0.0
13:35 17.8 59.0 1033.5 0.0 WNW 8.0 0.0
13:40 18.1 58.0 1033.3 4.8 WNW 8.0 0.0
13:45 18.3 57.0 1033.3 11.3 WNW 11.3 0.0
13:50 18.4 58.0 1033.3 0.0 WNW 11.3 0.0
13:55 18.7 56.0 1033.2 1.6 WNW 9.7 0.0
14:00 18.6 56.0 1033.1 0.0 W 8.0 0.0
14:05 18.5 57.0 1033.0 0.0 WNW 8.0 0.0
14:10 18.4 57.0 1033.1 1.6 WNW 12.9 0.0
14:15 18.5 56.0 1033.1 3.2 WNW 12.9 0.0
14:15 18.4 56.0 1033.1 3.2 WSW 11.3 0.0
14:25 18.2 57.0 1033.1 3.2 W 11.3 0.0
14:30 18.3 56.0 1033.1 0.0 SW 6.4 0.0
14:35 18.6 54.0 1033.1 6.4 SSE 8.0 0.0
14:40 18.9 54.0 1033.1 3.2 SSW 6.4 0.0
14:45 18.8 49.0 1033.0 12.9 SSE 12.9 0.0
14:50 18.5 50.0 1033.0 6.4 SE 11.3 0.0
14:55 18.3 51.0 1033.1 1.6 SSW 9.7 0.0
15:00 18.3 51.0 1033.1 1.6 SSW 9.7 0.0
15:05 18.3 53.0 1033.3 0.0 SSW 9.7 0.0
15:10 18.4 52.0 1033.3 3.2 SSW 4.8 0.0
15:15 18.4 52.0 1033.3 4.8 SW 8.0 0.0
15:15 18.4 52.0 1033.3 3.2 SSW 8.0 0.0
15:25 17.8 53.0 1033.1 9.7 ESE 14.5 0.0
15:30 17.6 55.0 1033.2 9.7 SSE 14.5 0.0
15:35 17.4 55.0 1033.2 12.9 S 14.5 0.0
15:40 17.3 55.0 1033.3 8.0 S 12.9 0.0
15:45 17.3 55.0 1033.3 0.0 SSE 9.7 0.0
15:50 17.4 56.0 1033.3 0.0 SW 9.7 0.0
15:55 17.6 56.0 1033.3 4.8 S 4.8 0.0
16:00 17.6 55.0 1033.2 8.0 S 9.7 0.0
16:05 17.3 55.0 1033.2 9.7 S 11.3 0.0
16:10 17.2 56.0 1033.4 6.4 S 11.3 0.0
16:15 17.1 57.0 1033.4 6.4 SSE 9.7 0.0
16:15 17.1 57.0 1033.3 8.0 SSW 9.7 0.0
16:25 16.7 58.0 1033.3 9.7 SSE 12.9 0.0
16:30 16.4 59.0 1033.4 6.4 S 12.9 0.0
16:35 16.2 59.0 1033.5 11.3 S 11.3 0.0
16:40 15.9 60.0 1033.7 1.6 S 11.3 0.0
16:45 15.7 61.0 1033.7 3.2 S 11.3 0.0
16:50 15.5 62.0 1033.7 9.7 SSW 9.7 0.0
16:55 15.3 63.0 1033.8 6.4 S 11.3 0.0
17:00 15.2 64.0 1033.9 0.0 S 11.3 0.0
17:05 15.0 65.0 1033.8 1.6 SSE 11.3 0.0
17:10 14.6 66.0 1033.8 0.0 S 8.0 0.0
17:15 14.3 67.0 1033.9 3.2 SE 8.0 0.0
17:15 14.3 67.0 1033.9 4.8 SE 8.0 0.0
17:25 13.7 69.0 1034.0 3.2 SE 6.4 0.0
17:30 13.6 69.0 1034.0 4.8 SSE 4.8 0.0
17:35 13.3 70.0 1034.0 0.0 SSE 4.8 0.0
17:40 12.9 71.0 1034.2 3.2 SE 4.8 0.0
17:45 12.7 72.0 1034.3 0.0 SE 4.8 0.0
17:50 12.6 72.0 1034.3 0.0 SE 3.2 0.0
17:55 12.2 73.0 1034.4 1.6 SE 4.8 0.0
18:00 11.7 74.0 1034.4 1.6 SE 4.8 0.0
18:05 11.3 75.0 1034.4 3.2 SE 4.8 0.0
18:10 11.1 76.0 1034.5 1.6 SE 4.8 0.0
18:15 10.7 77.0 1034.5 3.2 SE 4.8 0.0
18:15 10.7 77.0 1034.5 1.6 SE 4.8 0.0
18:25 10.3 78.0 1034.6 0.0 SE 3.2 0.0
18:30 10.0 78.0 1034.6 1.6 SE 3.2 0.0
18:35 9.7 79.0 1034.7 3.2 SE 6.4 0.0
18:40 9.6 79.0 1034.9 1.6 SE 4.8 0.0
18:45 9.4 80.0 1034.9 1.6 SE 4.8 0.0
18:50 9.3 81.0 1034.9 3.2 SE 4.8 0.0
18:55 9.3 80.0 1035.2 1.6 SE 6.4 0.0
19:00 9.2 81.0 1035.2 4.8 SE 9.7 0.0
19:05 9.2 80.0 1035.3 1.6 SE 9.7 0.0
19:10 9.2 80.0 1035.5 4.8 SE 6.4 0.0
19:15 8.9 80.0 1035.6 3.2 SSE 11.3 0.0
19:15 8.8 80.0 1035.6 1.6 ESE 11.3 0.0
19:25 8.4 81.0 1035.9 0.0 SE 6.4 0.0
19:30 8.3 81.0 1036.0 0.0 SSE 3.2 0.0
19:35 8.1 81.0 1036.2 0.0 SSE 0.0 0.0
19:40 7.7 81.0 1036.3 3.2 SSE 6.4 0.0
19:45 7.5 82.0 1036.3 6.4 SE 11.3 0.0
19:50 7.3 83.0 1036.2 6.4 SE 11.3 0.0
19:55 7.1 83.0 1036.2 4.8 SSE 8.0 0.0
20:00 6.8 83.0 1036.1 4.8 SSE 8.0 0.0
20:05 6.8 84.0 1036.1 3.2 SE 9.7 0.0
20:10 6.6 83.0 1036.0 3.2 SE 9.7 0.0
20:15 6.5 84.0 1035.9 1.6 SE 11.3 0.0
20:15 6.5 84.0 1035.9 1.6 SSE 11.3 0.0
20:25 6.6 84.0 1036.3 0.0 S 4.8 0.0
20:30 6.6 84.0 1036.3 0.0 S 3.2 0.0
20:35 6.4 84.0 1036.3 4.8 SE 6.4 0.0
20:40 6.3 84.0 1036.3 6.4 SE 8.0 0.0
20:45 6.3 84.0 1036.2 8.0 SSE 8.0 0.0
20:50 6.1 84.0 1036.3 0.0 SE 9.7 0.0
20:55 5.9 84.0 1036.4 1.6 SE 8.0 0.0
21:00 5.8 84.0 1036.4 0.0 SSE 4.8 0.0
21:05 5.5 85.0 1036.5 1.6 SSE 4.8 0.0
21:10 5.4 85.0 1036.5 4.8 SSE 4.8 0.0
Màxima 18.9 91.0 1036.5 12.9 S 16.1 0.0
Mínima -0.6 49.0 1031.8
Total 0.0